Regional Weather Roundup
Issued by NWS Albany, NY

Home | Current Version | Previous Version | Graphics & Text | Print | Product List | Glossary On
Versions: 1 2 3 4 5 6 7 8 9 10 11 12 13 14 15 16 17 18 19 20 21 22 23 24 25 26 27 28 29 30 31 32 33 34 35 36 37 38 39 40 41 42 43 44 45 46 47 48 49 50
840
ASUS41 KALY 270910
RWRALY

NEW YORK STATE HOURLY WEATHER ROUNDUP
NATIONAL WEATHER SERVICE ALBANY NY
500 AM EDT THU APR 27 2017

NOTE: "FAIR" INDICATES FEW OR NO CLOUDS BELOW 12,000 FEET WITH NO
SIGNIFICANT WEATHER AND/OR NO OBSTRUCTIONS TO VISIBILITY.

NYZ032-033-038>043-046>054-057>066-NYZ062>081-082-084-271000-
EAST


CITY           SKY/WX    TMP DP  RH WIND       PRES   REMARKS
ALBANY         CLOUDY    60  54  80 CALM      29.85R
GLENS FALLS    CLOUDY    58  54  86 CALM      29.84R
POUGHKEEPSIE   CLOUDY    58  56  93 CALM      29.84S FOG
NEWBURGH       CLOUDY    57  57 100 CALM      29.86S FOG
MONTGOMERY     CLOUDY    57  56  96 CALM      29.84S FOG
WHITE PLAINS     N/A     58  56  93 CALM      29.85S FOG
ISLIP          CLOUDY    56  56 100 CALM      29.86R FOG
NEW YORK CITY  DRZL/FOG  58  56  93 CALM      29.85S VSB 1/2
CENTRAL PARK   CLOUDY    59  58  96 CALM      29.88S FOG
$$

NYZ005>009-017-018-044>046-055-056-271000-
CENTRAL


CITY           SKY/WX    TMP DP  RH WIND       PRES   REMARKS
FULTON         CLEAR     60  55  83 VRB3      29.75R
SYRACUSE       PTCLDY    55  54  96 E8        29.75S
ROME           CLEAR     53  53 100 SE7       29.82R
ELMIRA         CLEAR     51  48  89 CALM      29.78S FOG
BINGHAMTON     CLOUDY    55  54  96 SE8       29.82R
MONTICELLO     CLOUDY    55  55 100 E3        29.87S VSB 1/4
$$

NYZ026>034-041>043-087-271000-
NORTH


CITY           SKY/WX    TMP DP  RH WIND       PRES   REMARKS
WATERTOWN      CLEAR     54  53  97 E6        29.74S
FORT DRUM      NOT AVBL
OGDENSBURG     FOG       53  52  98 E6        29.77F VSB 1/4
MASSENA        FOG       53  53 100 NE7       29.80S VSB 1/4
SARANAC LAKE   FOG       42  42 100 CALM      29.82R VSB 3/4
PLATTSBURGH    CLEAR     46  45  96 CALM      29.81R FOG
$$

NYZ001>004-010>016-019>021-085-271000-
WEST


CITY           SKY/WX    TMP DP  RH WIND       PRES   REMARKS
NIAGARA FALLS  CLEAR     56  51  84 E3        29.65F
BUFFALO        CLEAR     62  54  74 SE7       29.67S
DUNKIRK        CLEAR     64  56  75 SE9       29.65S
JAMESTOWN      CLEAR     57  52  82 S8        29.72S
WELLSVILLE     CLEAR     58  54  86 E5        29.79S
ROCHESTER      PTCLDY    62  55  77 S5        29.70F
PENN YAN       CLEAR     57  52  83 S3        29.76S
$$

             KEY
       WCI = WIND CHILL INDEX
       VSB = VISIBILITY
       HX  = HEAT INDEX
$$




USA.gov is the U.S. government's official web portal to all federal, state and local government web resources and services.